Flag for Norway Weather past 2 weeks in Hommelvik, Norway

Now
42 °F

Light rain. Sunny.


Feels Like: 37 °F
Forecast: 40 / 49 °F
Wind: 8 mph from West

Location: Trondheim / Vaernes

Current Time: Apr 18, 2015 at 3:58:36 PM

Latest Report: Apr 18, 2015 at 3:00 PM


Visibility: 7 mi

Pressure: 30.29 "Hg

Humidity: 88%

Dew point: 38 °F

Location of HommelvikLocation

Historic Weather in Hommelvik — Graph

°F

Hommelvik temperature yesterday

Maximum temperature yesterday: 47 °F (at 3:00 PM)
Minimum temperature yesterday: 39 °F (at 12:00 AM)
Average temperature yesterday: 43 °F

Past Weeks' High & Low Weather Summary

 TemperatureHumidityPressure
High58 °F (Apr 11, 2:00 PM)97% (Apr 11, 2:00 AM)30.37 "Hg (Apr 11, 2:00 AM)
Low27 °F (Apr 5, 6:00 AM)36% (Apr 11, 2:00 PM)29.44 "Hg (Apr 15, 5:00 PM)
Average41 °F77%29.94 "Hg
* Reported Apr 3 2:00 PM — Apr 18 2:00 PM, Hommelvik, Weather by CustomWeather, © 2015

Note: Actual official high and low records may vary slightly from our data, if they occured in-between our weather recording intervals... More about our weather records

Advertising

Hommelvik weather history for previous 24 hours

 ConditionsComfort  
Time TempWeatherWind HumidityBarometerVisibility
2:00 PM
Sat, Apr 18
41 °FRain showers. Fog.7 mph90%30.31 "Hg4 mi
1:00 PM44 °FSprinkles. Partly sunny.8 mph74%30.31 "Hg22 mi
11:00 AM43 °FPartly sunny.9 mph75%30.33 "Hg28 mi
10:00 AM43 °FScattered clouds.7 mph78%30.33 "Hg28 mi
9:00 AM42 °FScattered clouds.5 mph81%30.33 "Hg31 mi
8:00 AM41 °FRain showers. Partly sunny.6 mph83%30.34 "Hg16 mi
7:00 AM40 °FPartly sunny.5 mph81%30.34 "Hg31 mi
6:00 AM40 °FPartly sunny.5 mph81%30.35 "Hg28 mi
4:00 AM39 °FPassing clouds.5 mph85%30.35 "Hg25 mi
3:00 AM40 °FPassing clouds.3 mph79%30.37 "Hg28 mi
2:00 AM40 °FPassing clouds.1 mph79%30.36 "Hg28 mi
1:00 AM41 °FPassing clouds.3 mph75%30.36 "Hg28 mi
12:00 AM41 °FPassing clouds.5 mph71%30.35 "Hg28 mi
10:00 PM
Fri, Apr 17
43 °FQuite cool.6 mph71%30.34 "Hg31 mi
9:00 PM44 °FQuite cool.5 mph66%30.33 "Hg31 mi
8:00 PM44 °FRain showers. Passing clouds.6 mph65%30.32 "Hg31 mi
7:00 PM44 °FDrizzle. Cloudy.5 mph69%30.31 "Hg16 mi
6:00 PM45 °FPassing clouds.8 mph66%30.29 "Hg19 mi
5:00 PM46 °FRain showers. Sunny.8 mph66%30.28 "Hg28 mi
4:00 PM47 °FSunny.7 mph69%30.27 "Hg28 mi
3:00 PM47 °FPassing clouds.5 mph75%30.25 "Hg25 mi
Weather by CustomWeather, © 2015

See weather overviewHow to use our weather pages